Regional Weather Roundup
Issued by NWS

Home | Current Version | Previous Version | Graphics & Text | Print | Product List | Glossary On
Versions: 1 2 3 4 5 6 7 8 9 10 11 12 13 14 15 16 17 18 19 20 21 22 23 24 25 26 27
000
ASUS45 KBOU 280707
RWRCO

WEATHER ROUNDUP FOR COLORADO
NATIONAL WEATHER SERVICE DENVER/BOULDER CO
1200 AM MST TUE FEB 28 2017

NOTE: "FAIR" INDICATES FEW OR NO CLOUDS BELOW 12000 FEET WITH NO
SIGNIFICANT WEATHER AND/OR OBSTRUCTIONS TO VISIBILITY.

COZ001>005-013-030-031-280800-
...NORTHWEST COLORADO...

CITY           SKY/WX    TMP DP  RH WIND       PRES   REMARKS
CRAIG          LGT SNOW  22  18  85 E5        29.79S FOG     WCI  16
HAYDEN         CLOUDY    19  14  79 SW6       29.77S WCI  11
MEEKER         CLOUDY    24  21  88 CALM      29.75F
MOUNT WERNER   NOT AVBL
STEAMBOAT SPGS CLOUDY    19  17  90 W5        29.75S WCI  12
WALDEN         NOT AVBL
$$

COZ006>008-011-280800-
...WEST CENTRAL VALLEYS...

CITY           SKY/WX    TMP DP  RH WIND       PRES   REMARKS
GRAND JUNCTION CLOUDY    38  33  82 N6        29.70F
MONTROSE       LGT SNOW  33  32  96 W9        29.76F FOG     WCI  25
EAGLE          LGT SNOW  31  28  89 SW7       29.71S FOG     WCI  24
RIFLE          CLOUDY    33  22  63 NW23G32   29.72S WCI  21
DELTA          CLOUDY    38  34  87 N6        29.72F
NUCLA          LGT SNOW  34  32  93 SW8       29.79S WCI  27
$$

COZ017>023-064>068-280800-
...SOUTHWEST COLORADO...

CITY           SKY/WX    TMP DP  RH WIND       PRES   REMARKS
DURANGO        LGT SNOW  32  30  92 CALM      29.78F FOG
CORTEZ         LGT RAIN  34  33  96 CALM      29.77F
PAGOSA SPRINGS LGT SNOW  32  32 100 SW6       29.78F VSB 3/4 WCI  26
TELLURIDE      LGT SNOW  27  27  99 CALM      29.76F VSB 3/4
WOLF CREEK PAS CLOUDY    18  18 100 SW23G35   29.77F WCI   0
$$

COZ009-010-012-014-032>034-037-058>063-280800-
...CENTRAL COLORADO...

CITY           SKY/WX    TMP DP  RH WIND       PRES   REMARKS
ASPEN          CLOUDY    27  25  92 N5        29.68F WCI  22
BUENA VISTA    FLURRIES  29  26  88 N6        29.69S WCI  23
COPPER MTN     SNOW      19  12  73 MISG      29.66S VSB 1/2
BERTHOUD PASS  LGT SNOW  10   0  61 W16G30    29.64S VSB 3/4 WCI  -7
COTTONWOOD PAS LGT SNOW  27  25  93 CALM      29.68R VSB 1
GUNNISON       LGT SNOW  30  26  85 S9G16     29.72F FOG     WCI  22
KREMMLING      FLURRIES  27  18  69 NW5       29.72R WCI  21
LEADVILLE      LGT SNOW  19  16  88 NE6       29.66S FOG     WCI  11
MONARCH PASS     N/A     18  14  86 SW41G63   29.74R WCI  -5
SALIDA         CLOUDY    35  23  63 S8        29.77F WCI  28
SUNLIGHT       NOT AVBL
WILKERSON PASS CLOUDY    18  14  86 SW12G24   29.68S WCI   5
$$

COZ069>075-280800-
...SAN LUIS VALLEY/SANGRE DE CRISTO MOUNTAINS...

CITY           SKY/WX    TMP DP  RH WIND       PRES   REMARKS
ALAMOSA        FAIR      30  26  85 S17G24    29.76S WCI  18
LA VETA PASS   CLOUDY    27  21  80 S20G44    29.76R WCI  13
SAGUACHE       FAIR      19  18  93 N5        29.75F WCI  13
$$

COZ035-036-038>040-280800-
...NORTHERN COLORADO FRONT RANGE...

CITY           SKY/WX    TMP DP  RH WIND       PRES   REMARKS
DENVER INTL AP MOCLDY    24  19  81 E9        29.68R WCI  14
DMNS CITY PARK   N/A     30  19  64 NE7       29.71R WCI  23
AURORA         MOCLDY    25  20  81 E7        29.69R WCI  17
FRONT RANGE AP FAIR      28  21  74 E13G18    29.69R WCI  18
ERIE MUNI ARPT CLOUDY    31  22  68 S3        29.69S
BOULDER MUN AP CLOUDY    32  23  69 S7        29.69R WCI  26
CENTENNIAL     MOCLDY    28  19  69 NE8       29.68R WCI  20
BROOMFIELD     FAIR      30  23  74 CALM      29.70R
FORT COLLINS   FAIR      35  18  49 W12       29.68R WCI  27
LONGMONT       NOT AVBL
$$

COZ041-046-047-076>085-087-088-280800-
...PIKES PEAK/PALMER DIVIDE AND SOUTHERN FOOTHILLS...

CITY           SKY/WX    TMP DP  RH WIND       PRES   REMARKS
COLO. SPRINGS  FAIR      42  14  32 SW18      29.65F
A. F. ACADEMY  FAIR      42  11  28 W22G41    29.61F
SCHRIEVER AFB  FAIR      33  14  46 SW8       29.66S WCI  25
ELLICOTT       FAIR       1  32 100 SW12      29.65S WCI -16
FALCON         FAIR      35  13  40 SW8       29.65S WCI  28
FORT CARSON    FAIR      42  17  36 SW20      29.63F
LIMON          FAIR     N/A N/A N/A N10       29.70R
MONUMENT HILL  FAIR      27  14  59 NE3       29.66R
TRINIDAD       FAIR      46  21  37 SW18      29.69S
$$

COZ042>045-048>051-090-091-280800-
...NORTHEAST COLORADO...

CITY           SKY/WX    TMP DP  RH WIND       PRES   REMARKS
GREELEY ARPT   FAIR      31  21  66 NE7       29.71R WCI  24
AKRON          FAIR      24  21  88 N7        29.69R WCI  16
BURLINGTON     FAIR      30  18  60 W10       29.70R WCI  21
WRAY           NOT AVBL
STERLING       FAIR      28  27  93 CALM      29.69R
HOLYOKE        FAIR      34  28  80 NW13G18   29.68R WCI  25
FORT MORGAN    FAIR      25  22  89 CALM      29.71R
$$

COZ086-089-092>099-280800-
...SOUTHEAST COLORADO...

CITY           SKY/WX    TMP DP  RH WIND       PRES   REMARKS
PUEBLO         FAIR      32  15  49 N10       29.65R WCI  24
LA JUNTA       FAIR      41  19  41 VRB6      29.67F
LAMAR          FAIR      37  13  37 SW5       29.66S
SPRINGFIELD      N/A     33  13  43 SW12      29.70F WCI  24
$$




USA.gov is the U.S. government's official web portal to all federal, state and local government web resources and services.